Location: Bon Acre
(42.6442°N, 73.5758°W)
Time: 07:57:39
(UTC+00:00)

Tiangong - Visible Passes

Search period start: 09 February 2026 00:00
Search period end: 19 February 2026 00:00
Orbit: 386 x 393 km, 41.5° (Epoch: 8 February)

Date Brightness Start Highest point End Pass type
(mag) Time Alt. Az. Time Alt. Az. Time Alt. Az.
10 Feb 0.0 00:07:48 10° SSW 00:09:12 19° S 00:09:12 19° S visible
10 Feb 0.0 23:10:26 10° S 23:12:24 15° SSE 23:14:02 11° ESE visible
11 Feb 0.9 00:45:49 10° WSW 00:46:21 14° WSW 00:46:21 14° WSW visible
11 Feb -1.3 23:47:49 10° SW 23:50:47 36° SSE 23:51:05 35° SE visible
12 Feb -0.6 22:49:59 10° SSW 22:52:39 25° SSE 22:55:20 10° E visible
13 Feb -0.4 00:26:09 10° WSW 00:28:03 32° WSW 00:28:03 32° WSW visible
13 Feb -1.7 23:27:58 10° WSW 23:31:03 52° SSE 23:32:37 25° E visible
14 Feb 1.4 01:04:43 10° W 01:04:55 11° W 01:04:55 11° W visible
15 Feb -2.1 00:06:24 10° W 00:09:26 71° SSW 00:09:26 71° SSW visible
15 Feb -2.0 23:08:04 10° WSW 23:11:13 66° S 23:13:54 13° E visible
16 Feb 0.4 00:44:55 10° W 00:46:12 22° W 00:46:12 22° W visible
16 Feb -2.1 23:46:30 10° W 23:49:39 70° S 23:50:38 40° ESE visible
18 Feb -0.8 00:24:58 10° W 00:27:21 37° SW 00:27:21 37° SW visible
18 Feb -1.7 23:26:26 10° W 23:29:34 57° S 23:31:47 17° ESE visible
